Weather History for KHKY - March, 2013

Change the Weather History Date:

Tuesday, March 12, 2013

  Actual Average Record
Temperature  
Mean Temperature 52 °F -  
Max Temperature 63 °F 61 °F 86 °F (1990)
Min Temperature 43 °F 38 °F 19 °F (1998)
Degree Days  
Heating Degree Days 12    
Growing Degree Days 2 (Base 50)    
Moisture  
Dew Point 44 °F    
Average Humidity 76    
Maximum Humidity 100    
Minimum Humidity 32    
Precipitation  
Precipitation 0.71 in - - ()
Sea Level Pressure  
Sea Level Pressure 29.81 in    
Wind  
Wind Speed 3 mph (NW)    
Max Wind Speed 12 mph    
Max Gust Speed 20 mph    
Visibility 6 miles    
Events Rain    
Averages and records for this station are not official NWS values.
T = Trace of Precipitation, MM = Missing Value Source: NWS Daily Summary

Daily Weather History Graph

Daily Weather History Graph

Search for Another Location

Airport or City:

Trip Planner

Search our weather history database for the weather conditions in past years. The results will help you decide how hot, cold, wet, or windy it might be!

Date:

Astronomy

Mar. 12, 2013 Rise Set
Actual Time 7:40 AM EDT 7:30 PM EDT
Civil Twilight 7:14 AM EDT 7:56 PM EDT
Nautical Twilight 6:45 AM EDT 8:25 PM EDT
Astronomical Twilight 6:15 AM EDT 8:55 PM EDT
Moon 7:49 AM EDT (3/12) 8:40 PM EDT (3/12)
Length of Visible Light 12h 41m
Length of Day
11h 50m
New Moon, 1% of the Moon is Illuminated
Mar 12
New Moon
Mar 19
First Quarter
Mar 27
Full
Apr 3
Last Quarter
Apr 10
New

Hourly Weather History & Observations

Time (EDT) Temp. Windchill Dew Point Humidity Pressure Visibility Wind Dir Wind Speed Gust Speed Precip Events Conditions
12:12 AM 51.8 °F - 50.0 °F 94% 29.85 in 2.5 mi Calm Calm - 0.06 in Rain Heavy Rain
12:31 AM 51.8 °F - 51.8 °F 100% 29.85 in 4.0 mi Calm Calm - 0.10 in Rain Rain
12:53 AM 51.1 °F - 50.0 °F 96% 29.80 in 3.0 mi Calm Calm - 0.13 in Rain Light Rain
12:56 AM 51.8 °F - 50.0 °F 94% 29.83 in 2.5 mi Calm Calm - 0.02 in Rain Heavy Rain
1:32 AM 51.8 °F - 50.0 °F 94% 29.81 in 1.8 mi NNE 3.5 mph - 0.15 in Rain Heavy Rain
1:53 AM 52.0 °F - 50.0 °F 93% 29.77 in 1.5 mi North 5.8 mph - 0.25 in Rain Heavy Rain
2:34 AM 51.8 °F - 51.8 °F 100% 29.79 in 2.5 mi Calm Calm - 0.19 in Rain Rain
2:38 AM 51.8 °F - 51.8 °F 100% 29.79 in 1.5 mi Calm Calm - 0.20 in Rain Rain
2:47 AM 51.8 °F - 51.8 °F 100% 29.78 in 2.0 mi ENE 3.5 mph - 0.21 in Rain Light Rain
2:53 AM 53.1 °F - 51.1 °F 93% 29.74 in 2.5 mi Calm Calm - 0.22 in Rain Rain
3:07 AM 53.6 °F - 51.8 °F 94% 29.78 in 4.0 mi Calm Calm - 0.02 in Rain Light Rain
3:12 AM 51.8 °F - 51.8 °F 100% 29.78 in 2.0 mi Calm Calm - 0.03 in Rain Rain
3:18 AM 53.6 °F - 51.8 °F 94% 29.77 in 1.5 mi Calm Calm - 0.04 in Rain Light Rain
3:39 AM 53.6 °F - 51.8 °F 94% 29.76 in 3.0 mi Calm Calm - 0.04 in Rain Light Rain
3:53 AM 54.0 °F - 52.0 °F 93% 29.70 in 9.0 mi South 5.8 mph - 0.05 in   Overcast
4:53 AM 57.0 °F - 55.0 °F 93% 29.69 in 5.0 mi SSW 10.4 mph 19.6 mph 0.01 in Rain Light Rain
5:53 AM 55.9 °F - 54.0 °F 93% 29.70 in 4.0 mi West 5.8 mph - 0.01 in Rain Light Rain
6:21 AM 53.6 °F - 51.8 °F 94% 29.76 in 5.0 mi WNW 5.8 mph - 0.03 in Rain Light Rain
6:53 AM 53.1 °F - 51.1 °F 93% 29.73 in 3.0 mi West 3.5 mph - 0.04 in Rain Light Rain
7:53 AM 52.0 °F - 51.1 °F 97% 29.74 in 10.0 mi West 4.6 mph - 0.00 in   Overcast
8:53 AM 52.0 °F - 50.0 °F 93% 29.76 in 10.0 mi WNW 6.9 mph - N/A   Overcast
9:53 AM 51.1 °F - 45.0 °F 80% 29.81 in 10.0 mi NW 9.2 mph - N/A   Overcast
10:34 AM 53.6 °F - 44.6 °F 72% 29.85 in 10.0 mi NW 10.4 mph - N/A   Scattered Clouds
10:53 AM 54.0 °F - 43.0 °F 66% 29.81 in 10.0 mi NW 10.4 mph - N/A   Partly Cloudy
11:53 AM 55.9 °F - 42.1 °F 60% 29.82 in 10.0 mi NW 6.9 mph - N/A   Clear
12:53 PM 59.0 °F - 41.0 °F 51% 29.81 in 10.0 mi NNW 8.1 mph - N/A   Clear
1:53 PM 61.0 °F - 39.9 °F 46% 29.81 in 10.0 mi Variable 6.9 mph - N/A   Clear
2:53 PM 62.1 °F - 35.1 °F 37% 29.81 in 10.0 mi NW 8.1 mph 16.1 mph N/A   Clear
3:53 PM 62.1 °F - 33.1 °F 34% 29.82 in 10.0 mi NW 10.4 mph 19.6 mph N/A   Clear
4:53 PM 61.0 °F - 32.0 °F 34% 29.83 in 10.0 mi North 6.9 mph 18.4 mph N/A   Clear
5:53 PM 60.1 °F - 30.0 °F 32% 29.83 in 10.0 mi North 6.9 mph - N/A   Clear
6:53 PM 55.9 °F - 30.0 °F 37% 29.87 in 10.0 mi North 8.1 mph - N/A   Clear
7:53 PM 51.1 °F - 28.9 °F 43% 29.90 in 10.0 mi North 11.5 mph - N/A   Clear
8:53 PM 48.0 °F - 28.9 °F 48% 29.92 in 10.0 mi North 9.2 mph - N/A   Clear
9:53 PM 46.0 °F 41.4 °F 28.9 °F 51% 29.94 in 10.0 mi North 9.2 mph - N/A   Clear
10:53 PM 43.0 °F 41.3 °F 28.9 °F 58% 29.95 in 10.0 mi ENE 3.5 mph - N/A   Clear
11:53 PM 43.0 °F 40.3 °F 28.0 °F 56% 29.95 in 10.0 mi NW 4.6 mph - N/A   Clear